#timestamp,LO_Frequency,Hit,StdDev 
1458345615.4,286046995.5,N
1458345635.2,286046996.4,N
1458345655.0,286046992.1,N
1458345656.0,286046992.1,N
1458345675.8,286046997.1,N
1458345695.6,286047001.0,N
1458345715.4,286047000.8,N
1458345735.3,286046996.8,N
1458345755.1,286046995.3,N
1458345775.8,286046993.5,N
1458345795.7,286046995.2,N
1458345815.5,286046995.8,N
1458345835.3,286046995.2,N
1458345855.2,286046993.7,N
1458345875.9,286046994.9,N
1458345895.7,286046994.4,N
1458345915.6,286046994.0,N
1458345935.4,286046995.3,N
1458345955.2,286046994.1,N
1458345975.1,286046994.2,N
1458345976.0,286046994.2,N
1458345995.8,286046994.6,N
1458346015.6,286046990.8,Y
1458346035.5,286046997.6,P
1458346055.3,286046995.3,P
1458346075.1,286046997.9,N
1458346095.9,286046996.1,N
1458346115.7,286046996.1,Y
1458346135.5,286046998.8,P
1458346155.4,286047001.1,N
1458346175.2,286047001.0,N
1458346195.0,286046997.3,N
1458346195.9,286046997.3,N
1458346215.8,286046995.5,N
1458346235.6,286046994.5,N
1458346255.4,286046997.2,N
1458346275.2,286046997.6,N
1458346295.1,286046992.7,Y
1458346296.0,286046992.7,P
1458346315.8,286046993.7,N
1458346335.6,286046993.7,N
1458346355.5,286046996.3,N
1458346375.3,286046993.6,Y
1458346395.1,286047000.3,P
1458346415.9,286046998.9,N
1458346435.7,286046998.5,N
1458346455.5,286046999.3,N
1458346475.4,286046998.3,N
1458346495.2,286046997.0,N
1458346515.0,286046999.2,N
1458346515.9,286046999.2,N
1458346535.8,286046996.8,N
1458346555.6,286046997.7,N
1458346575.4,286046993.3,Y
1458346595.3,286046995.3,P
1458346615.1,286046993.9,P
1458346635.8,286046993.4,P
1458346655.7,286046994.2,Y
1458346675.5,286046999.2,P
1458346695.3,286047000.4,N
1458346715.2,286047000.5,N
1458346735.9,286046998.3,N
1458346755.7,286046999.7,N
1458346775.6,286047000.3,N
1458346795.4,286046995.9,N
1458346815.2,286046998.0,N
1458346835.1,286046997.7,N
1458346836.0,286046997.7,N
1458346855.8,286046997.8,N
1458346875.6,286046997.1,N
1458346895.4,286046996.1,N
1458346915.3,286046998.0,N
1458346935.1,286046998.9,N
1458346955.8,286046998.4,N
1458346975.7,286046996.6,N
1458346995.5,286047000.6,N
1458347015.3,286046996.6,N
1458347035.2,286046998.7,N
1458347055.9,286047000.1,N
1458347075.7,286046998.5,N
1458347095.6,286047004.4,N
1458347115.4,286047003.2,N
1458347135.2,286047003.0,N
1458347155.1,286047003.7,N
1458347156.0,286047003.7,N
1458347175.8,286047003.4,N
1458347195.6,286047003.1,N
1458347215.5,286047001.7,N
1458347235.3,286047000.1,N
1458347255.1,286047005.6,N
1458347275.8,286047007.0,N
1458347295.7,286047006.2,N
1458347315.5,286047009.1,N
1458347335.3,286047006.9,N
1458347355.2,286047004.9,N
1458347375.9,286047007.6,N
1458347395.7,286047004.6,N
1458347415.6,286047008.5,N
1458347435.4,286047008.3,N
1458347455.2,286047008.6,N
1458347475.1,286047009.7,N
1458347476.0,286047009.7,N
1458347495.8,286047011.0,N
1458347515.6,286047009.5,N
1458347535.5,286047007.7,N
1458347555.3,286047011.6,Y
1458347575.1,286047008.4,P
1458347595.9,286047008.9,P
1458347615.7,286047008.0,P
1458347635.5,286047007.1,Y
1458347655.4,286046997.6,P
1458347675.2,286046997.1,N
1458347695.0,286046997.7,N
1458347695.9,286046997.7,N
1458347715.8,286046996.8,N
1458347735.6,286046997.1,N
1458347755.4,286046998.3,N
1458347775.2,286047002.2,N
1458347795.1,286046999.8,N
1458347796.0,286046999.8,N
1458347815.8,286047000.4,N
1458347835.6,286047000.1,N
1458347855.5,286046999.3,N
1458347875.3,286046997.2,N
1458347895.1,286046997.6,N
1458347915.9,286046997.3,N
1458347935.7,286046997.8,N
1458347955.5,286046996.2,N
1458347975.4,286046993.4,N
1458347995.2,286046992.5,N
1458348015.0,286046994.6,N
1458348015.9,286046994.6,N
1458348035.8,286046995.1,N
1458348055.6,286046992.3,N
1458348075.4,286046994.7,N
1458348095.3,286046993.2,N
1458348115.1,286046988.5,Y
1458348116.0,286046988.5,P
1458348135.8,286046992.9,N
1458348155.7,286046994.7,N
1458348175.5,286046992.4,N
1458348195.3,286046992.8,N
1458348215.2,286046990.9,Y
1458348235.9,286046995.7,P
1458348255.7,286046993.7,P
1458348275.6,286046996.0,P
1458348295.4,286046997.4,N
1458348315.2,286046995.8,N
1458348335.0,286046997.8,N
1458348335.9,286046997.8,N
1458348355.8,286046994.3,Y
1458348375.6,286046997.1,P
1458348395.4,286046998.0,P
1458348415.3,286046995.7,P
1458348435.1,286046994.1,Y
1458348455.8,286046997.4,P
1458348475.7,286046994.6,P
1458348495.5,286046997.9,N
1458348515.3,286046997.9,N
1458348535.2,286046996.2,Y
1458348555.0,286046998.8,P
1458348555.9,286046998.8,N
1458348575.7,286046998.1,N
1458348595.6,286047000.3,N
1458348615.4,286046998.9,N
1458348635.2,286047002.3,N
1458348655.1,286047001.9,N
1458348656.0,286047001.9,N
1458348675.8,286047000.0,N
1458348695.6,286047000.5,N
1458348715.5,286047001.7,N
1458348735.3,286047005.4,Y
1458348755.1,286047007.3,P
1458348775.9,286047006.1,N
1458348795.7,286047009.3,N
1458348815.5,286047010.6,Y
1458348835.4,286047001.7,P
1458348855.2,286047001.9,N
1458348875.0,286046999.2,N
1458348875.9,286046999.2,N
1458348895.8,286046999.8,N
1458348915.6,286046998.6,N
1458348935.4,286047000.1,N
1458348955.3,286047000.5,N
1458348975.1,286047002.0,N
1458348976.0,286047002.0,N
1458348995.8,286046999.8,N
1458349015.7,286047001.9,N
1458349035.5,286047004.0,N
1458349055.3,286047004.5,N
1458349075.2,286047007.5,Y
1458349095.9,286047009.0,P
1458349115.7,286047012.4,P
1458349135.5,286047009.2,N
1458349155.4,286047009.5,N
1458349175.2,286047010.9,N
1458349195.0,286047009.6,N
1458349195.9,286047009.6,N
